Mar del Plata, Argentina

10:57 PM America en Noviembre 16, 2018 (GMT +0000)
Mar Del Plata International

Tiempo Historia de SAZM - Noviembre, 2018

Change the Weather History Date:

Viernes, Noviembre 9, 2018

  Actual Average Record
Temperature  
Temperatura media 73 ° F -  
Temperatura máxima 88 ° F 72 ° F 88 ° F (2018)
Temperatura mínima 58 ° F 52 ° F 41 ° F (2014)
Cooling Degree Days 8    
Growing Degree Days 23 (Base 50)    
Moisture  
Punto de rocío 64 ° F    
Average Humidity 80    
Maximum Humidity 100    
Minimum Humidity 41    
Precipitación  
Precipitación 1.30 pul 0.11 pul - ()
Presión al nivel del mar  
Presión al nivel del mar 29.78 pul    
Viento  
Velocidad del viento 9 mph ()    
Velocidad máxima del viento 21 mph    
Max Gust Speed 31 mph    
Visibilidad 4.2 Millas    
Eventos Niebla , Lluvia , Tormenta    
Averages and records for this station are not official NWS values.
T = Trace of Precipitation, MM = Missing Value Source: Averaged Metar Reports

Daily Weather History Graph

Daily Weather History Graph

Search for Another Location

Airport or City:

Astronomía

Nov. 09, 2018 Salida Puesta
Hora real 5:34 AM -03 7:33 PM -03
Crepúsculo civil 5:06 AM -03 8:02 PM -03
Crepúsculo náutico 4:30 AM -03 8:38 PM -03
Crepúsculo astronómico 3:53 AM -03 9:16 PM -03
Luna 7:07 AM -03 (11/9) 9:36 PM -03 (11/9)
Horas de luz 14h 56m
Horas de luz
13h 59m
Creciente, 4% of the Moon is Illuminated
Nov 9
Creciente
Nov 15
Cuarto creciente
Nov 23
Luna llena
Nov 29
Cuarto menguante
Dic 7
Nueva

Hourly Weather History & Observations

Hora (-03) Temp. Índice de calor Punto de rocío Humedad Presión Visibilidad Wind Dir Velocidad del viento Velocidad de ráfagas Precip Eventos Condiciones
12:00 AM 64 ° F - 62 ° F 90% 29.86 pul 6 mi NNE 11.5 mph - -  
12:00 AM 64.4 ° F - 60.8 ° F 88% 29.83 pul - NNE 11.5 mph - N/A   Despejado
1:00 AM 64.4 ° F - 60.8 ° F 88% 29.83 pul - Norte 9.2 mph - N/A   Despejado
2:00 AM 62.6 ° F - 60.8 ° F 94% 29.83 pul - NNO 6.9 mph - N/A   Despejado
3:00 AM 62 ° F - 60 ° F 92% 29.83 pul 6 mi ONO 4.6 mph - -  
3:00 AM 62.6 ° F - 59.0 ° F 88% 29.80 pul - ONO 4.6 mph - N/A   Despejado
4:00 AM 60.8 ° F - 59.0 ° F 94% 29.80 pul - ONO 5.8 mph - N/A   Despejado
5:00 AM 60.8 ° F - 59.0 ° F 94% 29.83 pul - ONO 4.6 mph - N/A   Despejado
5:15 AM 59.0 ° F - 59.0 ° F 100% 29.83 pul 0.3 mi Sin viento Sin viento - N/A Niebla Niebla ligera
5:35 AM 59.0 ° F - 59.0 ° F 100% 29.83 pul 0.6 mi Sin viento Sin viento - N/A Niebla Niebla ligera
6:00 AM 59 ° F - 59 ° F 99% 29.85 pul 1 mi NO 3.5 mph - - Niebla Bancos de niebla
6:00 AM 59.0 ° F - 59.0 ° F 100% 29.83 pul 0.6 mi NO 3.5 mph - N/A Niebla Niebla ligera
6:15 AM 60.8 ° F - 59.0 ° F 94% 29.83 pul - NNO 5.8 mph - N/A   Despejado
7:00 AM 62.6 ° F - 62.6 ° F 100% 29.83 pul - ONO 3.5 mph - N/A   Despejado
8:00 AM 68.0 ° F - 64.4 ° F 88% 29.83 pul - NNO 6.9 mph - N/A   Despejado
9:00 AM 72 ° F - 65 ° F 72% 29.84 pul 6 mi NNO 11.5 mph - -   Parcialmente nublado
9:00 AM 71.6 ° F - 64.4 ° F 78% 29.83 pul - NNO 11.5 mph - N/A   Despejado
9:21 AM 75.2 ° F - 66.2 ° F 73% 29.83 pul - NNO 13.8 mph 25.3 mph N/A   Despejado
10:00 AM 77.0 ° F - 66.2 ° F 69% 29.83 pul - NNO 17.3 mph - N/A   Despejado
11:00 AM 80.6 ° F 82.7 ° F 66.2 ° F 61% 29.80 pul - Norte 12.7 mph - N/A   Despejado
12:00 PM 85 ° F - 69 ° F 49% 29.80 pul 6 mi NNO 16.1 mph - -   Nubes dispersas
12:00 PM 86.0 ° F 89.4 ° F 68.0 ° F 55% 29.80 pul 6.2 mi NNO 16.1 mph - N/A   Nubes dispersas
1:00 PM 87.8 ° F 91.4 ° F 68.0 ° F 52% 29.77 pul 6.2 mi NNO 18.4 mph - N/A   Nubes dispersas
2:00 PM 87.8 ° F 91.4 ° F 68.0 ° F 52% 29.74 pul 6.2 mi NNO 16.1 mph - N/A   Muy nublado
3:00 PM 89 ° F - 68 ° F 41% 29.75 pul 6 mi NNO 16.1 mph - -   Muy nublado
3:00 PM 87.8 ° F 91.4 ° F 68.0 ° F 52% 29.74 pul 6.2 mi NNO 16.1 mph 27.6 mph N/A   Parcialmente nublado
4:00 PM 86.0 ° F 89.4 ° F 68.0 ° F 55% 29.71 pul 6.2 mi NNO 13.8 mph - N/A   Nubes dispersas
5:00 PM 87.8 ° F 91.4 ° F 68.0 ° F 52% 29.65 pul 6.2 mi NNO 17.3 mph - N/A   Nubes dispersas
5:08 PM 86.0 ° F 88.2 ° F 66.2 ° F 51% 29.68 pul 6.2 mi NNO 17.3 mph - N/A Tormenta Tormenta
6:00 PM 83 ° F - 68 ° F 53% 29.68 pul 6 mi NNO 9.2 mph - - Lluvia , Tormenta Tormenta
6:00 PM 82.4 ° F 85.4 ° F 68.0 ° F 62% 29.65 pul 5.6 mi Norte 9.2 mph - N/A Lluvia , Tormenta Tormenta débil
6:23 PM 78.8 ° F - 66.2 ° F 65% 29.68 pul 5.6 mi Sur 16.1 mph - N/A Lluvia , Tormenta Tormenta débil
6:38 PM 71.6 ° F - 64.4 ° F 78% 29.71 pul 3.1 mi SSE 20.7 mph - N/A Lluvia , Tormenta Tormenta
6:41 PM 69.8 ° F - 64.4 ° F 83% 29.71 pul 1.9 mi SSE 20.7 mph - N/A Lluvia , Tormenta Tormenta
6:45 PM 68.0 ° F - 64.4 ° F 88% 29.68 pul 1.2 mi SSE 20.7 mph - N/A Lluvia , Tormenta Tormenta
7:00 PM 68.0 ° F - 66.2 ° F 94% 29.80 pul 0.1 mi Oeste 17.3 mph 31.1 mph N/A Lluvia , Tormenta Tormenta fuerte
7:19 PM 64.4 ° F - 64.4 ° F 100% 29.74 pul 2.5 mi SE 11.5 mph - N/A Lluvia , Tormenta Tormenta
7:38 PM 66.2 ° F - 64.4 ° F 94% 29.74 pul 4.3 mi Este 6.9 mph - N/A Lluvia , Tormenta Tormenta débil
8:00 PM 66.2 ° F - 64.4 ° F 94% 29.71 pul 5.0 mi Este 4.6 mph - N/A Lluvia , Tormenta Tormenta débil
9:00 PM 65 ° F - 64 ° F 93% 29.87 pul 4 mi NNE 10.4 mph - - Lluvia , Tormenta Tormenta
9:00 PM 64.4 ° F - 64.4 ° F 100% 29.86 pul 4.3 mi NNE 10.4 mph - N/A Lluvia , Tormenta Tormenta débil
10:00 PM 64.4 ° F - 64.4 ° F 100% 29.80 pul - NNE 11.5 mph - N/A Lluvia , Tormenta Tormenta débil
11:00 PM 64.4 ° F - 64.4 ° F 100% 29.80 pul 3.1 mi NNE 11.5 mph - N/A Lluvia , Tormenta Tormenta